This demonstration page uses our WeatherBlox Daily Observations layout. Learn more.

Left ArrowRight Arrow

39.01783, -85.05884

Hourly Observations for September 25, 2017

Temp ( °F °C ) Dew Point ( °F °C ) Humidity (%) Winds ( mph kmh ) Pressure ( in mb ) Visibility ( mi km ) Precip ( " mm )
12:52 am 00:52 Mostly Clear 70 21.1 58 14.4 66 66 Calm 30.01 1016 10 16 0.00 0.00
1:52 am 01:52 Mostly Clear 65 18.3 58 14.4 78 78 W 5 7 30.01 1016 10 16 0.00 0.00
2:52 am 02:52 Mostly Clear 64 17.8 59 15 84 84 Calm 30.01 1016 10 16 0.00 0.00
3:52 am 03:52 Partly Cloudy 64 17.8 59 15 84 84 Calm 30.00 1016 10 16 0.00 0.00
4:52 am 04:52 Mostly Clear 67 19.4 62 16.7 84 84 N 3 6 30.00 1016 10 16 0.00 0.00
5:52 am 05:52 Mostly Clear 64 17.8 61 16.1 90 90 Calm 30.01 1016 10 16 0.00 0.00
6:52 am 06:52 Mostly Clear 65 18.3 60 15.6 84 84 Calm 30.02 1017 10 16 0.00 0.00
7:52 am 07:52 Mostly Sunny 64 17.8 60 15.6 87 87 Calm 30.04 1017 10 16 0.00 0.00
8:52 am 08:52 Mostly Sunny 68 20 63 17.2 84 84 Calm 30.04 1017 10 16 0.00 0.00
9:52 am 09:52 Partly Cloudy 75 23.9 64 17.8 69 69 Calm 30.05 1018 10 16 0.00 0.00
10:52 am 10:52 Mostly Cloudy 80 26.7 63 17.2 56 56 Calm 30.04 1017 10 16 0.00 0.00
11:52 am 11:52 Mostly Cloudy 82 27.8 64 17.8 55 55 W 3 6 30.04 1017 10 16 0.00 0.00
12:52 pm 12:52 Mostly Cloudy 84 28.9 65 18.3 53 53 W 3 6 30.03 1017 10 16 0.00 0.00
1:52 pm 13:52 Mostly Cloudy 86 30 64 17.8 48 48 VRB 3 6 30.01 1016 10 16 0.00 0.00
2:52 pm 14:52 Mostly Cloudy 88 31.1 62 16.7 42 42 VRB 5 7 29.98 1015 10 16 0.00 0.00
3:52 pm 15:52 Mostly Cloudy 85 29.4 64 17.8 50 50 SSW 3 6 29.97 1015 10 16 0.00 0.00
4:52 pm 16:52 Mostly Cloudy 85 29.4 63 17.2 48 48 S 5 7 29.96 1015 10 16 0.00 0.00
5:52 pm 17:52 Mostly Cloudy 83 28.3 65 18.3 55 55 SSW 5 7 29.96 1015 10 16 0.00 0.00
6:52 pm 18:52 Mostly Cloudy 80 26.7 69 20.6 69 69 S 3 6 29.95 1014 10 16 0.00 0.00
7:52 pm 19:52 Mostly Cloudy 78 25.6 66 18.9 67 67 SSE 3 6 29.96 1014 10 16 0.00 0.00
8:52 pm 20:52 Partly Cloudy 77 25 66 18.9 69 69 SE 3 6 29.96 1015 10 16 0.00 0.00
9:52 pm 21:52 Partly Cloudy 73 22.8 66 18.9 79 79 S 3 6 29.96 1015 10 16 0.00 0.00
10:52 pm 22:52 Mostly Clear 69 20.6 66 18.9 90 90 S 5 7 29.97 1015 10 16 0.00 0.00
11:52 pm 23:52 Mostly Clear 72 22.2 66 18.9 82 82 SSE 3 6 29.97 1015 10 16 0.00 0.00

Powered by AerisWeather